This is the latest recevied weather packets stored in our database for station/object KW4UJ. If no packets are shown the sender has not sent any weather packets the latest 10 day(s).
| Time | Temp. | Humidity | Pressure | Rain* | Wind** | Luminosity | Snow |
|---|---|---|---|---|---|---|---|
| 1777928958 | 25.56° C | 32% | 1009.4 hPa | 0 mm | - | 365 W/m² | - |
| 1777928655 | 26.11° C | 32% | 1009.3 hPa | 0 mm | - | 391 W/m² | - |
| 1777928352 | 25.56° C | 34% | 1009.3 hPa | 0 mm | - | 440 W/m² | - |
| 1777928050 | 25.56° C | 32% | 1009.1 hPa | 0 mm | - | 453 W/m² | - |
| 1777927748 | 25.56° C | 33% | 1009.4 hPa | 0 mm | - | 454 W/m² | - |
| 1777927446 | 25.56° C | 31% | 1009.6 hPa | 0 mm | - | 443 W/m² | - |
| 1777927145 | 25° C | 32% | 1009.4 hPa | 0 mm | - | 448 W/m² | - |
| 1777926842 | 25° C | 33% | 1009.7 hPa | 0 mm | - | 461 W/m² | - |
| 1777926537 | 25.56° C | 32% | 1009.6 hPa | 0 mm | - | 89 W/m² | - |
| 1777926235 | 25.56° C | 32% | 1009.7 hPa | 0 mm | - | 474 W/m² | - |
| 1777925931 | 25.56° C | 33% | 1009.7 hPa | 0 mm | - | 477 W/m² | - |
| 1777925629 | 25.56° C | 33% | 1009.7 hPa | 0 mm | - | 485 W/m² | - |
| 1777925326 | 25° C | 33% | 1009.8 hPa | 0 mm | - | 506 W/m² | - |
| 1777925023 | 25° C | 33% | 1009.9 hPa | 0 mm | - | 525 W/m² | - |
| 1777924719 | 24.44° C | 33% | 1009.9 hPa | 0 mm | - | 550 W/m² | - |
| 1777924414 | 25° C | 33% | 1010 hPa | 0 mm | - | 496 W/m² | - |
| 1777924112 | 25° C | 33% | 1010 hPa | 0 mm | - | 559 W/m² | - |
| 1777923808 | 25° C | 32% | 1010.2 hPa | 0 mm | - | 563 W/m² | - |
| 1777923504 | 25.56° C | 32% | 1010.1 hPa | 0 mm | - | 569 W/m² | - |
| 1777923201 | 25.56° C | 33% | 1010.3 hPa | 0 mm | - | 574 W/m² | - |
| 1777922900 | 25° C | 33% | 1010.4 hPa | 0 mm | - | 578 W/m² | - |
| 1777922597 | 25° C | 33% | 1010.4 hPa | 0 mm | - | 582 W/m² | - |
| 1777922296 | 25° C | 33% | 1010.5 hPa | 0 mm | - | 596 W/m² | - |
| 1777921993 | 25° C | 34% | 1010.6 hPa | 0 mm | - | 607 W/m² | - |
| 1777921688 | 25° C | 32% | 1010.7 hPa | 0 mm | - | 612 W/m² | - |
* Rain latest hour (hover to see other rain measurements)
** Current wind speed in m/s (hover to see current wind gust speed)